Portada
METAR-TAF:

METAR-TAF

Aeroports :

Barrow Island, Austràlia

latitud: 20-51-57S, longitud: 115-24-17E, altitud: 8 m

Observació

L'informe es va fer fa 36 minuts, a les 20:00 UTC
Vent 15 kt del Sud-Oest
Temperatura 23°C
Humitat 89%
Pressió 1012 hPa

METAR: YBWX 132000Z AUTO 22015KT //// // ////// 23/21 Q1012

Hora: 04:36 (20:36 UTC)


TAF: manca

Observacions i pronòstics meteorològics de més de 4000 aeroports (METAR i TAF).

Les estacions disponibles són els punts grocs i vermells al mapa.

Posi el ratolí al punt desitjat per veure el nom de l'estació.

Feu clic per veure les observacions i els pronòstics meteorològics.

Per canviar el mapa: feu clic els botons verds amb una creu de color negre per apropar; al botó verd amb un guió per allunyar la imatge; o en les fletxes verdes per a mapes adjacents.


METAR-TAF: